EZY597J EGKK-EGAA

Flight info

Callsign EZY597J
Flight time 1h 5m
Altitude 34000
Route LAM L10 BPK UN601 LESTA UP6 RODOL UM65 TENSO L603 BELOX DCT REMSI DCT UVPOK M147 ROBOP M146 IPSET P6 BELZU
Aircraft A320/M-SDE2E3FGHIJ1RWXYZ/LB1

Departure

Time 2026-05-05 18:24
Airport London Gatwick Airport (EGKK)

Arrival

Time 2026-05-05 19:30
Airport Belfast International Airport (EGAA)
Time Latitude Longitude Altitude Speed Heading
2026-05-05 17:52 51.15809 -0.17749 207 ft 0 kts 347°
2026-05-05 18:13 51.15797 -0.17745 212 ft 2 kts 347°
2026-05-05 18:13 51.15786 -0.17740 212 ft 0 kts 347°
2026-05-05 18:14 51.15780 -0.17738 215 ft 2 kts 347°
2026-05-05 18:14 51.15763 -0.17732 213 ft 2 kts 347°
2026-05-05 18:14 51.15747 -0.17722 216 ft 3 kts 315°
2026-05-05 18:14 51.15736 -0.17699 218 ft 3 kts 279°
2026-05-05 18:15 51.15735 -0.17681 217 ft 0 kts 257°
2026-05-05 18:15 51.15735 -0.17683 217 ft 1 kts 257°
2026-05-05 18:16 51.15724 -0.17768 208 ft 13 kts 259°
2026-05-05 18:16 51.15705 -0.17912 218 ft 13 kts 258°
2026-05-05 18:16 51.15679 -0.18098 207 ft 20 kts 257°
2026-05-05 18:16 51.15650 -0.18298 213 ft 17 kts 253°
2026-05-05 18:17 51.15559 -0.18338 212 ft 15 kts 168°
2026-05-05 18:17 51.15458 -0.18305 209 ft 15 kts 168°
2026-05-05 18:17 51.15359 -0.18267 216 ft 14 kts 166°
2026-05-05 18:17 51.15262 -0.18233 214 ft 15 kts 168°
2026-05-05 18:18 51.15186 -0.18297 217 ft 14 kts 261°
2026-05-05 18:18 51.15170 -0.18442 214 ft 14 kts 257°
2026-05-05 18:18 51.15141 -0.18650 211 ft 22 kts 257°
2026-05-05 18:18 51.15108 -0.18881 210 ft 21 kts 258°
2026-05-05 18:19 51.15078 -0.19098 213 ft 19 kts 258°
2026-05-05 18:19 51.15051 -0.19299 210 ft 17 kts 258°
2026-05-05 18:19 51.15027 -0.19476 214 ft 15 kts 258°
2026-05-05 18:19 51.15005 -0.19636 208 ft 14 kts 257°
2026-05-05 18:20 51.14985 -0.19779 220 ft 12 kts 257°
2026-05-05 18:20 51.14962 -0.19944 209 ft 21 kts 257°
2026-05-05 18:20 51.14931 -0.20170 208 ft 20 kts 257°
2026-05-05 18:20 51.14903 -0.20377 207 ft 19 kts 258°
2026-05-05 18:21 51.14876 -0.20567 209 ft 17 kts 257°
2026-05-05 18:21 51.14849 -0.20764 209 ft 21 kts 258°
2026-05-05 18:21 51.14817 -0.20994 209 ft 20 kts 257°
2026-05-05 18:21 51.14781 -0.21201 210 ft 18 kts 253°
2026-05-05 18:22 51.14753 -0.21366 218 ft 12 kts 241°
2026-05-05 18:22 51.14683 -0.21382 215 ft 13 kts 146°
2026-05-05 18:22 51.14621 -0.21328 210 ft 6 kts 167°
2026-05-05 18:22 51.14612 -0.21325 208 ft 0 kts 168°
2026-05-05 18:23 51.14609 -0.21324 210 ft 4 kts 167°
2026-05-05 18:23 51.14556 -0.21288 211 ft 12 kts 143°
2026-05-05 18:23 51.14522 -0.21145 207 ft 13 kts 79°
2026-05-05 18:23 51.14536 -0.21038 207 ft 12 kts 78°
2026-05-05 18:24 51.14594 -0.20626 210 ft 73 kts 77°
2026-05-05 18:24 51.14747 -0.19513 216 ft 130 kts 77°
2026-05-05 18:24 51.14972 -0.17887 390 ft 158 kts 78°
2026-05-05 18:24 51.15213 -0.16197 1138 ft 156 kts 77°
2026-05-05 18:25 51.15449 -0.14483 1767 ft 165 kts 77°
2026-05-05 18:25 51.15618 -0.13247 1987 ft 180 kts 76°
2026-05-05 18:25 51.16004 -0.10437 2356 ft 210 kts 76°
2026-05-05 18:25 51.16339 -0.08024 2724 ft 235 kts 73°
2026-05-05 18:26 51.17066 -0.05612 3283 ft 249 kts 55°
2026-05-05 18:26 51.17794 -0.03072 4092 ft 259 kts 77°
2026-05-05 18:26 51.17719 -0.00153 4762 ft 272 kts 103°
2026-05-05 18:26 51.16898 0.02582 4964 ft 275 kts 119°
2026-05-05 18:27 51.15864 0.05141 5003 ft 274 kts 121°
2026-05-05 18:27 51.14810 0.07669 5006 ft 274 kts 121°
2026-05-05 18:27 51.13752 0.10197 5007 ft 275 kts 121°
2026-05-05 18:27 51.12686 0.12739 5348 ft 278 kts 121°
2026-05-05 18:28 51.10526 0.17884 7217 ft 282 kts 121°
2026-05-05 18:28 51.09439 0.20503 8066 ft 285 kts 121°
2026-05-05 18:28 51.08346 0.23159 8911 ft 289 kts 121°
2026-05-05 18:29 51.07244 0.25857 9756 ft 293 kts 122°
2026-05-05 18:29 51.06129 0.28622 10366 ft 305 kts 121°
2026-05-05 18:29 51.05115 0.31655 10606 ft 326 kts 106°
2026-05-05 18:29 51.04873 0.35256 11151 ft 332 kts 82°
2026-05-05 18:30 51.05555 0.38749 11879 ft 334 kts 59°
2026-05-05 18:30 51.07042 0.41570 12635 ft 336 kts 38°
2026-05-05 18:30 51.09096 0.43346 13033 ft 339 kts 17°
2026-05-05 18:30 51.11423 0.43793 13125 ft 339 kts 355°
2026-05-05 18:31 51.13721 0.42939 13141 ft 341 kts 342°
2026-05-05 18:31 51.15971 0.41731 13142 ft 341 kts 341°
2026-05-05 18:31 51.18212 0.40501 13146 ft 341 kts 341°
2026-05-05 18:31 51.20457 0.39269 13141 ft 341 kts 341°
2026-05-05 18:32 51.22701 0.38038 13136 ft 341 kts 341°
2026-05-05 18:32 51.24945 0.36806 13139 ft 341 kts 341°
2026-05-05 18:32 51.27194 0.35572 13276 ft 344 kts 341°
2026-05-05 18:32 51.29360 0.33916 13991 ft 347 kts 329°
2026-05-05 18:33 51.31445 0.31944 14632 ft 350 kts 329°
2026-05-05 18:33 51.33543 0.29961 15149 ft 352 kts 330°
2026-05-05 18:33 51.35658 0.27958 15803 ft 355 kts 330°
2026-05-05 18:33 51.37788 0.25933 16445 ft 357 kts 330°
2026-05-05 18:34 51.39933 0.23885 17094 ft 360 kts 330°
2026-05-05 18:34 51.41388 0.22494 17528 ft 362 kts 330°
2026-05-05 18:34 51.43558 0.20419 18169 ft 365 kts 330°
2026-05-05 18:34 51.45716 0.18350 18688 ft 368 kts 329°
2026-05-05 18:35 51.47944 0.16209 18885 ft 369 kts 329°
2026-05-05 18:35 51.50149 0.14094 18941 ft 369 kts 329°
2026-05-05 18:35 51.52333 0.12000 19196 ft 372 kts 329°
2026-05-05 18:35 51.54561 0.09861 19764 ft 374 kts 329°
2026-05-05 18:36 51.56804 0.07706 20301 ft 377 kts 329°
2026-05-05 18:36 51.59061 0.05532 20819 ft 380 kts 328°
2026-05-05 18:36 51.61334 0.03341 21331 ft 382 kts 328°
2026-05-05 18:36 51.63619 0.01133 21834 ft 385 kts 328°
2026-05-05 18:37 51.65925 -0.01094 22334 ft 388 kts 328°
2026-05-05 18:37 51.68245 -0.03337 22874 ft 391 kts 328°
2026-05-05 18:37 51.70583 -0.05605 23361 ft 393 kts 327°
2026-05-05 18:37 51.72934 -0.07895 23792 ft 396 kts 327°
2026-05-05 18:38 51.75302 -0.10199 24175 ft 399 kts 327°
2026-05-05 18:38 51.77689 -0.12525 24550 ft 402 kts 327°
2026-05-05 18:38 51.80092 -0.14868 24918 ft 405 kts 327°
2026-05-05 18:38 51.82511 -0.17226 25285 ft 408 kts 327°
2026-05-05 18:39 51.84950 -0.19603 25593 ft 411 kts 327°
2026-05-05 18:39 51.87406 -0.22005 25956 ft 414 kts 327°
2026-05-05 18:39 51.89874 -0.24423 26298 ft 417 kts 327°
2026-05-05 18:39 51.92360 -0.26864 26643 ft 419 kts 326°
2026-05-05 18:40 51.94866 -0.29326 26975 ft 422 kts 326°
2026-05-05 18:40 51.97388 -0.31803 27308 ft 425 kts 326°
2026-05-05 18:40 51.99925 -0.34297 27643 ft 428 kts 326°
2026-05-05 18:40 52.02481 -0.36811 27966 ft 431 kts 326°
2026-05-05 18:41 52.05057 -0.39348 28288 ft 434 kts 326°
2026-05-05 18:41 52.07644 -0.41905 28616 ft 437 kts 326°
2026-05-05 18:41 52.10249 -0.44473 28936 ft 440 kts 326°
2026-05-05 18:41 52.12883 -0.47038 29250 ft 442 kts 326°
2026-05-05 18:42 52.15502 -0.49570 29561 ft 445 kts 326°
2026-05-05 18:42 52.18208 -0.52180 29874 ft 448 kts 326°
2026-05-05 18:42 52.20898 -0.54777 30147 ft 450 kts 326°
2026-05-05 18:42 52.23562 -0.57358 30411 ft 452 kts 326°
2026-05-05 18:43 52.26266 -0.59986 30685 ft 453 kts 326°
2026-05-05 18:43 52.28980 -0.62631 30960 ft 455 kts 326°
2026-05-05 18:43 52.31700 -0.65290 31238 ft 456 kts 326°
2026-05-05 18:43 52.34417 -0.67951 31632 ft 454 kts 326°
2026-05-05 18:44 52.37122 -0.70601 32030 ft 452 kts 326°
2026-05-05 18:44 52.39816 -0.73242 32435 ft 451 kts 326°
2026-05-05 18:44 52.42498 -0.75875 32824 ft 449 kts 326°
2026-05-05 18:44 52.45172 -0.78504 33219 ft 447 kts 326°
2026-05-05 18:45 52.47835 -0.81121 33607 ft 446 kts 327°
2026-05-05 18:45 52.50492 -0.83737 33918 ft 445 kts 327°
2026-05-05 18:45 52.55721 -0.88898 33978 ft 433 kts 327°
2026-05-05 18:46 52.60856 -0.93998 33984 ft 430 kts 327°
2026-05-05 18:46 52.65971 -0.99094 33989 ft 430 kts 327°
2026-05-05 18:47 52.71080 -1.04195 34000 ft 429 kts 327°
2026-05-05 18:47 52.75874 -1.09972 34010 ft 426 kts 314°
2026-05-05 18:48 52.80167 -1.16718 34000 ft 426 kts 314°
2026-05-05 18:48 52.84463 -1.23459 34003 ft 425 kts 314°
2026-05-05 18:49 52.88720 -1.30154 34005 ft 425 kts 314°
2026-05-05 18:49 52.93000 -1.36916 34004 ft 425 kts 315°
2026-05-05 18:50 52.97268 -1.43690 34008 ft 425 kts 315°
2026-05-05 18:50 53.01531 -1.50473 33999 ft 424 kts 315°
2026-05-05 18:51 53.05789 -1.57260 34008 ft 424 kts 315°
2026-05-05 18:51 53.10048 -1.64058 34010 ft 424 kts 315°
2026-05-05 18:52 53.14304 -1.70861 34021 ft 424 kts 315°
2026-05-05 18:52 53.18543 -1.77686 34021 ft 424 kts 315°
2026-05-05 18:53 53.22743 -1.84572 34031 ft 423 kts 310°
2026-05-05 18:53 53.25994 -1.92677 34042 ft 420 kts 298°
2026-05-05 18:54 53.28852 -2.01190 34032 ft 420 kts 298°
2026-05-05 18:54 53.31706 -2.09692 34045 ft 419 kts 298°
2026-05-05 18:55 53.34553 -2.18192 34035 ft 419 kts 298°
2026-05-05 18:55 53.37392 -2.26699 34032 ft 418 kts 298°
2026-05-05 18:56 53.40219 -2.35212 34034 ft 418 kts 298°
2026-05-05 18:56 53.43028 -2.43727 34030 ft 417 kts 297°
2026-05-05 18:57 53.45833 -2.52253 34033 ft 417 kts 297°
2026-05-05 18:57 53.48633 -2.60775 34044 ft 417 kts 297°
2026-05-05 18:58 53.51425 -2.69293 34048 ft 416 kts 297°
2026-05-05 18:58 53.54202 -2.77829 34052 ft 416 kts 297°
2026-05-05 18:59 53.56968 -2.86357 34052 ft 415 kts 296°
2026-05-05 18:59 53.59727 -2.94875 34064 ft 415 kts 296°
2026-05-05 19:00 53.62484 -3.03402 34067 ft 414 kts 296°
2026-05-05 19:00 53.65213 -3.11864 34063 ft 413 kts 296°
2026-05-05 19:01 53.67943 -3.20394 34063 ft 413 kts 296°
2026-05-05 19:01 53.70661 -3.28924 34055 ft 412 kts 296°
2026-05-05 19:02 53.73480 -3.37348 34053 ft 413 kts 300°
2026-05-05 19:02 53.76625 -3.45468 34047 ft 413 kts 301°
2026-05-05 19:03 53.79840 -3.53523 34040 ft 413 kts 301°
2026-05-05 19:03 53.83027 -3.61609 34034 ft 413 kts 301°
2026-05-05 19:04 53.86177 -3.69740 34030 ft 413 kts 301°
2026-05-05 19:04 53.89314 -3.77872 33842 ft 409 kts 301°
2026-05-05 19:05 53.90861 -3.81886 33560 ft 404 kts 301°
2026-05-05 19:05 53.92390 -3.85854 33283 ft 401 kts 301°
2026-05-05 19:05 53.93910 -3.89800 33013 ft 398 kts 301°
2026-05-05 19:05 53.95420 -3.93730 32745 ft 396 kts 301°
2026-05-05 19:06 53.96919 -3.97644 32490 ft 395 kts 301°
2026-05-05 19:06 53.98410 -4.01541 32226 ft 393 kts 301°
2026-05-05 19:06 53.99895 -4.05426 31967 ft 391 kts 301°
2026-05-05 19:06 54.01368 -4.09277 31663 ft 386 kts 301°
2026-05-05 19:07 54.02821 -4.13086 31216 ft 382 kts 301°
2026-05-05 19:07 54.04261 -4.16868 30767 ft 379 kts 301°
2026-05-05 19:07 54.05686 -4.20622 30341 ft 376 kts 301°
2026-05-05 19:07 54.07080 -4.24297 29895 ft 373 kts 301°
2026-05-05 19:08 54.08475 -4.27983 29453 ft 368 kts 301°
2026-05-05 19:08 54.09850 -4.31619 29053 ft 363 kts 301°
2026-05-05 19:08 54.11206 -4.35208 28651 ft 358 kts 301°
2026-05-05 19:08 54.12543 -4.38750 28260 ft 353 kts 301°
2026-05-05 19:09 54.13860 -4.42246 27875 ft 348 kts 301°
2026-05-05 19:09 54.15159 -4.45702 27494 ft 344 kts 301°
2026-05-05 19:09 54.16444 -4.49119 27102 ft 340 kts 301°
2026-05-05 19:09 54.17714 -4.52503 26714 ft 337 kts 301°
2026-05-05 19:10 54.18968 -4.55856 26329 ft 334 kts 301°
2026-05-05 19:10 54.20211 -4.59186 25945 ft 331 kts 301°
2026-05-05 19:10 54.21446 -4.62488 25556 ft 329 kts 301°
2026-05-05 19:10 54.22673 -4.65775 25148 ft 327 kts 301°
2026-05-05 19:11 54.23892 -4.69044 24761 ft 325 kts 301°
2026-05-05 19:11 54.25101 -4.72295 24345 ft 324 kts 301°
2026-05-05 19:11 54.26307 -4.75548 23934 ft 322 kts 301°
2026-05-05 19:11 54.27505 -4.78785 23515 ft 321 kts 301°
2026-05-05 19:12 54.28696 -4.82006 23082 ft 319 kts 301°
2026-05-05 19:12 54.29879 -4.85198 22673 ft 316 kts 301°
2026-05-05 19:12 54.31053 -4.88364 22280 ft 313 kts 301°
2026-05-05 19:12 54.32214 -4.91505 21890 ft 311 kts 301°
2026-05-05 19:13 54.33366 -4.94627 21503 ft 309 kts 301°
2026-05-05 19:13 54.34510 -4.97728 21137 ft 307 kts 301°
2026-05-05 19:13 54.35646 -5.00816 20753 ft 305 kts 301°
2026-05-05 19:13 54.36773 -5.03891 20379 ft 304 kts 301°
2026-05-05 19:14 54.37896 -5.06957 20006 ft 303 kts 301°
2026-05-05 19:14 54.39016 -5.10012 19637 ft 302 kts 301°
2026-05-05 19:14 54.40132 -5.13056 19269 ft 301 kts 301°
2026-05-05 19:14 54.41245 -5.16100 18894 ft 301 kts 301°
2026-05-05 19:15 54.42341 -5.19096 18543 ft 300 kts 301°
2026-05-05 19:15 54.43450 -5.22129 18162 ft 300 kts 301°
2026-05-05 19:15 54.44555 -5.25161 17763 ft 298 kts 301°
2026-05-05 19:15 54.45652 -5.28177 17420 ft 297 kts 301°
2026-05-05 19:16 54.46741 -5.31177 17064 ft 295 kts 301°
2026-05-05 19:16 54.47820 -5.34160 16709 ft 293 kts 301°
2026-05-05 19:16 54.48897 -5.37133 16368 ft 292 kts 301°
2026-05-05 19:16 54.49969 -5.40096 16033 ft 291 kts 301°
2026-05-05 19:17 54.50988 -5.43088 15696 ft 289 kts 294°
2026-05-05 19:17 54.51628 -5.46359 15337 ft 289 kts 281°
2026-05-05 19:17 54.51799 -5.49802 14981 ft 290 kts 270°
2026-05-05 19:17 54.51758 -5.53267 14622 ft 290 kts 270°
2026-05-05 19:18 54.51720 -5.56734 14256 ft 290 kts 270°
2026-05-05 19:18 54.51685 -5.60206 13896 ft 290 kts 270°
2026-05-05 19:18 54.51653 -5.63678 13490 ft 290 kts 270°
2026-05-05 19:18 54.51623 -5.67148 13128 ft 289 kts 270°
2026-05-05 19:19 54.51591 -5.70604 12759 ft 288 kts 270°
2026-05-05 19:19 54.51557 -5.74045 12383 ft 287 kts 270°
2026-05-05 19:19 54.51518 -5.77470 12018 ft 286 kts 270°
2026-05-05 19:19 54.51478 -5.80895 11647 ft 286 kts 270°
2026-05-05 19:20 54.51439 -5.84308 11270 ft 285 kts 270°
2026-05-05 19:20 54.51400 -5.87715 10891 ft 285 kts 270°
2026-05-05 19:20 54.51361 -5.91116 10552 ft 283 kts 270°
2026-05-05 19:20 54.51320 -5.94484 10078 ft 279 kts 270°
2026-05-05 19:21 54.51280 -5.97770 9640 ft 270 kts 270°
2026-05-05 19:21 54.51240 -6.00964 9254 ft 266 kts 270°
2026-05-05 19:21 54.51198 -6.04096 8874 ft 265 kts 270°
2026-05-05 19:21 54.51154 -6.07263 8487 ft 264 kts 270°
2026-05-05 19:22 54.51111 -6.10423 8102 ft 264 kts 271°
2026-05-05 19:22 54.51068 -6.13577 7711 ft 263 kts 270°
2026-05-05 19:22 54.51024 -6.16724 7313 ft 263 kts 271°
2026-05-05 19:22 54.50982 -6.19872 6903 ft 263 kts 271°
2026-05-05 19:23 54.50940 -6.23023 6496 ft 264 kts 271°
2026-05-05 19:23 54.50895 -6.26186 6055 ft 265 kts 271°
2026-05-05 19:23 54.50845 -6.29352 5630 ft 265 kts 271°
2026-05-05 19:23 54.50793 -6.32477 5448 ft 255 kts 271°
2026-05-05 19:24 54.50742 -6.35443 5382 ft 241 kts 271°
2026-05-05 19:24 54.50693 -6.38248 5293 ft 230 kts 271°
2026-05-05 19:24 54.50731 -6.40953 5200 ft 222 kts 284°
2026-05-05 19:24 54.51068 -6.42600 5139 ft 213 kts 301°
2026-05-05 19:25 54.51991 -6.44514 4887 ft 209 kts 323°
2026-05-05 19:25 54.53253 -6.45694 4544 ft 211 kts 336°
2026-05-05 19:25 54.54593 -6.46753 4232 ft 213 kts 336°
2026-05-05 19:25 54.55940 -6.47832 3915 ft 214 kts 336°
2026-05-05 19:26 54.57369 -6.48630 3589 ft 214 kts
2026-05-05 19:26 54.58711 -6.47770 3276 ft 211 kts 42°
2026-05-05 19:26 54.59540 -6.45752 2979 ft 204 kts 60°
2026-05-05 19:26 54.60115 -6.43564 2687 ft 197 kts 64°
2026-05-05 19:27 54.60621 -6.41419 2426 ft 188 kts 64°
2026-05-05 19:27 54.61098 -6.39413 2177 ft 174 kts 63°
2026-05-05 19:27 54.61555 -6.37550 1947 ft 163 kts 62°
2026-05-05 19:27 54.61995 -6.35805 1749 ft 154 kts 61°
2026-05-05 19:28 54.62408 -6.34188 1561 ft 142 kts 61°
2026-05-05 19:28 54.62807 -6.32654 1361 ft 138 kts 59°
2026-05-05 19:28 54.63201 -6.31154 1167 ft 137 kts 61°
2026-05-05 19:28 54.63602 -6.29640 983 ft 139 kts 61°
2026-05-05 19:29 54.64000 -6.28141 798 ft 138 kts 59°
2026-05-05 19:29 54.64398 -6.26632 687 ft 138 kts 61°
2026-05-05 19:29 54.64797 -6.25135 533 ft 136 kts 59°
2026-05-05 19:29 54.65190 -6.23662 351 ft 135 kts 61°
2026-05-05 19:30 54.65569 -6.22261 274 ft 113 kts 65°
2026-05-05 19:30 54.65824 -6.21305 272 ft 63 kts 64°
2026-05-05 19:30 54.65972 -6.20757 274 ft 46 kts 65°
2026-05-05 19:30 54.66101 -6.20281 274 ft 42 kts 64°
2026-05-05 19:31 54.66216 -6.19845 274 ft 38 kts 65°
2026-05-05 19:31 54.66282 -6.19664 272 ft 13 kts 24°
2026-05-05 19:31 54.66368 -6.19723 272 ft 14 kts 322°
2026-05-05 19:31 54.66389 -6.19887 272 ft 16 kts 248°
2026-05-05 19:32 54.66345 -6.20052 272 ft 14 kts 245°
2026-05-05 19:32 54.66305 -6.20201 272 ft 13 kts 245°
2026-05-05 19:32 54.66270 -6.20333 272 ft 11 kts 245°
2026-05-05 19:32 54.66239 -6.20449 276 ft 10 kts 245°
2026-05-05 19:33 54.66211 -6.20553 272 ft 12 kts 245°
2026-05-05 19:33 54.66153 -6.20765 272 ft 22 kts 245°
2026-05-05 19:33 54.66088 -6.21014 273 ft 24 kts 246°
2026-05-05 19:33 54.66052 -6.21146 272 ft 9 kts 248°
2026-05-05 19:34 54.66064 -6.21208 272 ft 4 kts 319°
2026-05-05 19:34 54.66093 -6.21243 272 ft 2 kts 297°
2026-05-05 19:34 54.66085 -6.21279 272 ft 5 kts 248°
2026-05-05 19:35 54.66072 -6.21327 272 ft 0 kts 244°